Estación de Longaví Norte
Ultimos registro cada 15 minutos 67
| N° | Estación | Fecha / Hora | Temperatura | Humedad | Lluvia | Velocidad | Dirección | Radiación | Presion |
| 67 | Longaví Norte | 03-05-2026 16:30 | 16 | 76,9 | 0 | 0 | 46 | 78,1 | 999 |
| 66 | Longaví Norte | 03-05-2026 16:15 | 16,9 | 71,1 | 0 | 0 | 44 | 123,1 | 998,9 |
| 65 | Longaví Norte | 03-05-2026 16:00 | 16,6 | 69,6 | 0 | 0 | 15 | 116,9 | 999,1 |
| 64 | Longaví Norte | 03-05-2026 15:45 | 16,7 | 70,5 | 0 | 0 | 351 | 136,9 | 998,9 |
| 63 | Longaví Norte | 03-05-2026 15:30 | 16,3 | 71,5 | 0 | 0 | 42 | 135,6 | 999 |
| 62 | Longaví Norte | 03-05-2026 15:15 | 16,7 | 70,2 | 0 | 0 | 0 | 151,9 | 999,2 |
| 61 | Longaví Norte | 03-05-2026 15:00 | 16,4 | 72,4 | 0 | 0 | 1 | 114,4 | 999,1 |
| 60 | Longaví Norte | 03-05-2026 14:45 | 16,2 | 72,6 | 0 | 0,3 | 52 | 119,4 | 999 |
| 59 | Longaví Norte | 03-05-2026 14:30 | 16,9 | 72,5 | 0 | 0,3 | 46 | 184,4 | 999,1 |
| 58 | Longaví Norte | 03-05-2026 14:15 | 16,9 | 74,3 | 0 | 0 | 131 | 199,4 | 999,5 |
| 57 | Longaví Norte | 03-05-2026 14:00 | 16,1 | 73,8 | 0 | 0 | 97 | 178,1 | 999,6 |
| 56 | Longaví Norte | 03-05-2026 13:45 | 15,9 | 76,2 | 0 | 0 | 97 | 219,4 | 999,5 |
| 55 | Longaví Norte | 03-05-2026 13:30 | 16,1 | 73,3 | 0 | 0 | 119 | 220,6 | 999,9 |
| 54 | Longaví Norte | 03-05-2026 13:15 | 16,2 | 70,6 | 0 | 0 | 138 | 240,6 | 1000,3 |
| 53 | Longaví Norte | 03-05-2026 13:00 | 15,6 | 73,5 | 0 | 0,3 | 350 | 399,4 | 1000,3 |
| 52 | Longaví Norte | 03-05-2026 12:45 | 15,5 | 73,9 | 0 | 0 | 337 | 298,1 | 1000,2 |
| 51 | Longaví Norte | 03-05-2026 12:30 | 14,8 | 76,1 | 0 | 0 | 350 | 244,4 | 1000,3 |
| 50 | Longaví Norte | 03-05-2026 12:15 | 14,3 | 79,3 | 0 | 0,3 | 17 | 223,1 | 1000 |
| 49 | Longaví Norte | 03-05-2026 12:00 | 13,9 | 79,4 | 0 | 0,7 | 324 | 233,1 | 1000 |
| 48 | Longaví Norte | 03-05-2026 11:45 | 14 | 80,1 | 0 | 0,3 | 321 | 183,1 | 1000,2 |
| 47 | Longaví Norte | 03-05-2026 11:30 | 13,9 | 77,5 | 0 | 0,7 | 350 | 293,1 | 1000,1 |
| 46 | Longaví Norte | 03-05-2026 11:15 | 13,5 | 79,3 | 0 | 0,3 | 14 | 264,4 | 1000 |
| 45 | Longaví Norte | 03-05-2026 11:00 | 13,2 | 83,4 | 0 | 0,3 | 357 | 243,1 | 1000,3 |
| 44 | Longaví Norte | 03-05-2026 10:45 | 12,6 | 84,9 | 0 | 0,7 | 337 | 205,6 | 1000,4 |
| 43 | Longaví Norte | 03-05-2026 10:30 | 12,2 | 85,8 | 0 | 0,3 | 340 | 235,6 | 999,9 |
| 42 | Longaví Norte | 03-05-2026 10:15 | 11,9 | 91,6 | 0 | 0,3 | 6 | 285,6 | 1000,2 |
| 41 | Longaví Norte | 03-05-2026 10:00 | 10,4 | 99,5 | 0 | 0,3 | 117 | 325,6 | 999,8 |
| 40 | Longaví Norte | 03-05-2026 09:45 | 9,3 | 100 | 0 | 0 | 70 | 315,6 | 999,9 |
| 39 | Longaví Norte | 03-05-2026 09:30 | 7,8 | 100 | 0 | 0 | 108 | 155,6 | 1000 |
| 38 | Longaví Norte | 03-05-2026 09:15 | 6,7 | 100 | 0 | 0 | 218 | 138,1 | 1000 |
| 37 | Longaví Norte | 03-05-2026 09:00 | 6,1 | 100 | 0 | 0 | 218 | 101,9 | 999,9 |
| 36 | Longaví Norte | 03-05-2026 08:45 | 5,3 | 100 | 0 | 0 | 218 | 85,6 | 999,8 |
| 35 | Longaví Norte | 03-05-2026 08:30 | 4,5 | 100 | 0 | 0 | 218 | 111,9 | 999,7 |
| 34 | Longaví Norte | 03-05-2026 08:15 | 2,7 | 100 | 0 | 0 | 218 | 90,6 | 999,3 |
| 33 | Longaví Norte | 03-05-2026 08:00 | 1,1 | 100 | 0 | 0 | 218 | 26,9 | 999,1 |
| 32 | Longaví Norte | 03-05-2026 07:45 | 1 | 100 | 0 | 0 | 218 | 21,9 | 998,9 |
| 31 | Longaví Norte | 03-05-2026 07:30 | 1,2 | 100 | 0 | 0 | 218 | 6,9 | 998,7 |
| 30 | Longaví Norte | 03-05-2026 07:15 | 0,1 | 100 | 0 | 0 | 218 | 0,6 | 998,8 |
| 29 | Longaví Norte | 03-05-2026 07:00 | -0,4 | 100 | 0 | 0 | 218 | 0,6 | 998,6 |
| 28 | Longaví Norte | 03-05-2026 06:45 | -0,2 | 100 | 0 | 0 | 218 | 0,6 | 998,7 |
| 27 | Longaví Norte | 03-05-2026 06:30 | 0,1 | 100 | 0 | 0 | 218 | 0,6 | 998,8 |
| 26 | Longaví Norte | 03-05-2026 06:15 | 0,1 | 100 | 0 | 0 | 218 | 0,6 | 998,6 |
| 25 | Longaví Norte | 03-05-2026 06:00 | -0,1 | 100 | 0 | 0 | 218 | 0,6 | 998,5 |
| 24 | Longaví Norte | 03-05-2026 05:45 | 0,3 | 100 | 0 | 0,3 | 218 | 0,6 | 998,4 |
| 23 | Longaví Norte | 03-05-2026 05:30 | 0,7 | 100 | 0 | 0 | 286 | 0,6 | 998,3 |
| 22 | Longaví Norte | 03-05-2026 05:15 | -0,5 | 100 | 0 | 0 | 300 | 0,6 | 997,9 |
| 21 | Longaví Norte | 03-05-2026 05:00 | -0,5 | 100 | 0 | 0 | 300 | 0,6 | 998 |
| 20 | Longaví Norte | 03-05-2026 04:45 | -0,3 | 100 | 0 | 0 | 300 | 0,6 | 998 |
| 19 | Longaví Norte | 03-05-2026 04:30 | -0,5 | 100 | 0 | 0 | 300 | 0,6 | 998,1 |
| 18 | Longaví Norte | 03-05-2026 04:15 | -0,3 | 100 | 0 | 0 | 300 | 0,6 | 998,6 |
| 17 | Longaví Norte | 03-05-2026 04:00 | 0,5 | 100 | 0 | 0 | 300 | 0,6 | 998,7 |
| 16 | Longaví Norte | 03-05-2026 03:45 | 0,5 | 100 | 0 | 0 | 300 | 0,6 | 998,5 |
| 15 | Longaví Norte | 03-05-2026 03:30 | 0,2 | 100 | 0 | 0 | 300 | 0,6 | 998,2 |
| 14 | Longaví Norte | 03-05-2026 03:15 | 0,4 | 100 | 0 | 0 | 300 | 0,6 | 998,2 |
| 13 | Longaví Norte | 03-05-2026 03:00 | 0,1 | 100 | 0 | 0 | 300 | 0,6 | 998,6 |
| 12 | Longaví Norte | 03-05-2026 02:45 | 0,5 | 100 | 0 | 0 | 300 | 0,6 | 998,8 |
| 11 | Longaví Norte | 03-05-2026 02:30 | 0,7 | 100 | 0 | 0 | 300 | 0,6 | 999,1 |
| 10 | Longaví Norte | 03-05-2026 02:15 | 0,5 | 100 | 0 | 0 | 300 | 0,6 | 999 |
| 9 | Longaví Norte | 03-05-2026 02:00 | 0,3 | 100 | 0 | 0 | 300 | 0,6 | 998,8 |
| 8 | Longaví Norte | 03-05-2026 01:45 | 0,7 | 99,9 | 0 | 0 | 300 | 0,6 | 999,2 |
| 7 | Longaví Norte | 03-05-2026 01:30 | 0,6 | 99,7 | 0 | 0 | 300 | 0,6 | 999,2 |
| 6 | Longaví Norte | 03-05-2026 01:15 | 0,9 | 99,7 | 0 | 0 | 300 | 0,6 | 999,5 |
| 5 | Longaví Norte | 03-05-2026 01:00 | 0,9 | 99,5 | 0 | 0 | 300 | 0,6 | 999,2 |
| 4 | Longaví Norte | 03-05-2026 00:45 | 1,1 | 99,5 | 0 | 0 | 300 | 0,6 | 999,1 |
| 3 | Longaví Norte | 03-05-2026 00:30 | 1,5 | 100 | 0 | 0 | 300 | 0,6 | 999,2 |
| 2 | Longaví Norte | 03-05-2026 00:15 | 1 | 99,6 | 0 | 0 | 300 | 0,6 | 998,9 |
| 1 | Longaví Norte | 03-05-2026 00:00 | 1,1 | 99,5 | 0 | 0 | 300 | 0,6 | 998,7 |